Buffalo, SD

6:20 AM MDT on May 25, 2017 (GMT -0600)
Buffalo

Weather History for K2WX - July, 2013

Change the Weather History Date:

Wednesday, July 31, 2013

  Actual Average Record
Temperature  
Mean Temperature 70 °F 73 °F  
Max Temperature 84 °F 87 °F 102 °F (2007)
Min Temperature 55 °F 59 °F 52 °F (1999)
Degree Days  
Heating Degree Days 0 0  
Month to date heating degree days 10 21  
Since 1 June heating degree days 99 134  
Since 1 July heating degree days 10 20  
Cooling Degree Days 5 8  
Month to date cooling degree days 223 207  
Year to date cooling degree days 279 275  
Since 1 June cooling degree days 269 269  
Growing Degree Days 20 (Base 50)    
Moisture  
Dew Point 49 °F    
Average Humidity 58    
Maximum Humidity 93    
Minimum Humidity 23    
Precipitation  
Precipitation 0.00 in 0.06 in 1.47 in (2016)
Month to date precipitation 0.98 2.06  
Year to date precipitation 6.84 10.73  
Sea Level Pressure  
Sea Level Pressure 30.08 in    
Wind  
Wind Speed 7 mph (NNW)    
Max Wind Speed 18 mph    
Max Gust Speed 29 mph    
T = Trace of Precipitation, MM = Missing Value Source: NWS Daily Summary

Daily Weather History Graph

Daily Weather History Graph

Search for Another Location

Airport or City:

Trip Planner

Search our weather history database for the weather conditions in past years. The results will help you decide how hot, cold, wet, or windy it might be!

Date:

Astronomy

Jul. 31, 2013 Rise Set
Actual Time 5:36 AM MDT 8:23 PM MDT
Civil Twilight 5:02 AM MDT 8:57 PM MDT
Nautical Twilight 4:19 AM MDT 9:40 PM MDT
Astronomical Twilight 3:28 AM MDT 10:31 PM MDT
Moon 12:34 AM MDT (7/31) 3:42 PM MDT (7/31)
Length of Visible Light 15h 54m
Length of Day
14h 46m
Waning Crescent, 31% of the Moon is Illuminated
Jul 31
Waning Crescent
Aug 6
New
Aug 14
First Quarter
Aug 20
Full
Aug 28
Last Quarter

Hourly Weather History & Observations

Time (MDT) Temp. Dew Point Humidity Pressure Visibility Wind Dir Wind Speed Gust Speed Precip Events Conditions
12:56 AM 62.1 °F 55.9 °F 80% 30.09 in - Calm Calm - N/A   Unknown
1:56 AM 62.1 °F 57.0 °F 84% 30.09 in - Calm Calm - N/A   Unknown
2:56 AM 59.0 °F 54.0 °F 83% 30.10 in - North 9.2 mph - N/A   Unknown
3:56 AM 57.0 °F 54.0 °F 89% 30.09 in - WSW 5.8 mph - N/A   Unknown
4:56 AM 60.1 °F 55.0 °F 83% 30.11 in - NNW 3.5 mph - N/A   Unknown
5:56 AM 55.0 °F 53.1 °F 93% 30.14 in - West 6.9 mph - N/A   Unknown
6:56 AM 57.9 °F 55.0 °F 90% 30.14 in - WNW 4.6 mph - N/A   Unknown
7:56 AM 66.0 °F 57.0 °F 73% 30.14 in - WNW 5.8 mph - N/A   Unknown
8:56 AM 70.0 °F 54.0 °F 57% 30.14 in - WNW 4.6 mph - N/A   Unknown
9:56 AM 73.9 °F 52.0 °F 46% 30.13 in - NNW 11.5 mph - N/A   Unknown
10:56 AM 75.9 °F 48.9 °F 38% 30.12 in - NNW 11.5 mph 20.7 mph N/A   Unknown
11:56 AM 78.1 °F 44.1 °F 30% 30.12 in - NNE 9.2 mph 19.6 mph N/A   Unknown
12:56 PM 80.1 °F 45.0 °F 29% 30.10 in - NNW 10.4 mph 18.4 mph N/A   Unknown
1:56 PM 82.0 °F 42.1 °F 24% 30.07 in - WNW 15.0 mph 28.8 mph N/A   Unknown
2:56 PM 84.0 °F 42.1 °F 23% 30.07 in - NNW 10.4 mph - N/A   Unknown
3:56 PM 82.0 °F 42.1 °F 24% 30.06 in - Calm Calm - N/A   Unknown
4:56 PM 84.0 °F 42.1 °F 23% 30.03 in - NW 4.6 mph 16.1 mph N/A   Unknown
5:56 PM 82.9 °F 41.0 °F 23% 30.03 in - NNW 6.9 mph 18.4 mph N/A   Unknown
6:56 PM 82.0 °F 43.0 °F 25% 30.02 in - North 6.9 mph - N/A   Unknown
7:56 PM 75.9 °F 46.9 °F 36% 30.01 in - NNE 10.4 mph - N/A   Unknown
8:56 PM 70.0 °F 48.0 °F 46% 30.03 in - ENE 6.9 mph - N/A   Unknown
9:56 PM 68.0 °F 46.9 °F 47% 30.04 in - NE 8.1 mph - N/A   Unknown
10:56 PM 64.9 °F 48.0 °F 54% 30.04 in - NNE 12.7 mph - N/A   Unknown
11:56 PM 64.9 °F 48.0 °F 54% 30.04 in - ENE 4.6 mph - N/A   Unknown